TimeEST,TemperatureF,Dew PointF,Humidity,Sea Level PressureIn,VisibilityMPH,Wind Direction,Wind SpeedMPH,Gust SpeedMPH,PrecipitationIn,Events,Conditions,WindDirDegrees,DateUTC
12:52 AM,30.9,28.9,92,30.06,5.0,NNE,4.6,-,0.01,Rain,Light Freezing Rain,30,2012-12-17 05:52:00
1:08 AM,30.2,28.4,93,30.04,7.0,NNE,5.8,-,0.00,,Overcast,20,2012-12-17 06:08:00
1:27 AM,30.2,28.4,93,30.04,7.0,NNE,5.8,-,0.00,,Overcast,30,2012-12-17 06:27:00
1:52 AM,30.9,28.9,92,30.06,5.0,NNE,4.6,-,0.00,,Overcast,30,2012-12-17 06:52:00
2:19 AM,30.2,28.4,93,30.03,5.0,North,4.6,-,N/A,,Overcast,10,2012-12-17 07:19:00
2:52 AM,30.9,28.9,92,30.05,4.0,NNE,4.6,-,0.00,Rain,Light Freezing Rain,30,2012-12-17 07:52:00
3:52 AM,30.0,28.0,92,30.01,6.0,Variable,5.8,-,0.00,,Overcast,0,2012-12-17 08:52:00
4:52 AM,30.0,28.0,92,30.03,10.0,NNW,5.8,-,N/A,,Overcast,340,2012-12-17 09:52:00
5:30 AM,30.2,28.4,93,30.00,6.0,NNE,4.6,-,0.01,Rain,Light Freezing Rain,30,2012-12-17 10:30:00
5:40 AM,30.2,28.4,93,30.00,4.0,North,3.5,-,0.03,Rain,Light Freezing Rain,350,2012-12-17 10:40:00
5:52 AM,30.0,28.0,92,30.01,5.0,NNE,3.5,-,0.05,Rain,Light Freezing Rain,20,2012-12-17 10:52:00
6:12 AM,30.2,28.4,93,29.98,6.0,ENE,8.1,-,0.03,Rain,Light Freezing Rain,60,2012-12-17 11:12:00
6:52 AM,32.0,28.9,88,30.00,7.0,NNE,5.8,-,0.09,Rain,Light Freezing Rain,20,2012-12-17 11:52:00
6:59 AM,32.0,28.4,87,29.98,8.0,NNE,4.6,-,0.00,Rain,Light Freezing Rain,20,2012-12-17 11:59:00
7:30 AM,32.0,30.2,93,29.98,10.0,North,4.6,-,0.01,,Overcast,360,2012-12-17 12:30:00
7:52 AM,32.0,30.0,92,30.00,10.0,NNE,4.6,-,0.01,,Overcast,20,2012-12-17 12:52:00
8:16 AM,32.0,30.2,93,29.99,8.0,NNW,4.6,-,0.01,Rain,Light Freezing Rain,340,2012-12-17 13:16:00
8:45 AM,32.0,30.2,93,29.99,10.0,North,4.6,-,0.02,,Overcast,360,2012-12-17 13:45:00
8:52 AM,32.0,30.0,92,30.01,10.0,NNE,4.6,-,0.02,,Overcast,20,2012-12-17 13:52:00
9:10 AM,32.0,30.2,93,29.99,4.0,North,4.6,-,0.00,,Overcast,360,2012-12-17 14:10:00
9:17 AM,32.0,30.2,93,29.98,2.5,Variable,6.9,-,0.00,Rain,Light Freezing Rain,0,2012-12-17 14:17:00
9:40 AM,30.2,30.2,100,29.99,3.0,NNW,4.6,-,0.00,Rain,Light Freezing Rain,340,2012-12-17 14:40:00
9:52 AM,30.9,30.0,96,30.00,3.0,North,4.6,-,0.00,Rain,Light Freezing Rain,350,2012-12-17 14:52:00
10:09 AM,30.2,30.2,100,29.97,3.0,NE,4.6,-,0.00,,Overcast,40,2012-12-17 15:09:00
10:52 AM,30.9,30.0,96,29.99,4.0,North,5.8,-,0.00,,Overcast,10,2012-12-17 15:52:00
11:40 AM,30.2,30.2,100,29.96,2.5,NNW,6.9,-,N/A,,Overcast,330,2012-12-17 16:40:00
11:52 AM,30.9,30.0,96,29.98,2.5,NNW,6.9,-,N/A,,Overcast,340,2012-12-17 16:52:00
12:52 PM,32.0,30.0,92,29.95,2.5,NNW,5.8,-,N/A,,Overcast,330,2012-12-17 17:52:00
1:24 PM,32.0,30.2,93,29.94,3.0,NW,5.8,-,N/A,,Overcast,310,2012-12-17 18:24:00
1:52 PM,32.0,30.9,96,29.95,4.0,NNW,5.8,-,N/A,,Overcast,340,2012-12-17 18:52:00
2:52 PM,32.0,30.9,96,29.93,4.0,North,5.8,-,N/A,,Overcast,350,2012-12-17 19:52:00
3:52 PM,33.1,30.9,92,29.92,4.0,NNW,5.8,-,N/A,,Overcast,340,2012-12-17 20:52:00
4:52 PM,33.1,30.9,92,29.90,6.0,NNW,6.9,-,N/A,,Overcast,340,2012-12-17 21:52:00
7:52 PM,33.1,32.0,96,29.89,6.0,Variable,6.9,-,N/A,,Overcast,0,2012-12-18 00:52:00
8:52 PM,34.0,32.0,92,29.88,10.0,NNW,5.8,-,N/A,,Overcast,330,2012-12-18 01:52:00
9:52 PM,34.0,32.0,92,29.86,10.0,NNW,4.6,-,N/A,,Overcast,340,2012-12-18 02:52:00
10:52 PM,34.0,32.0,92,29.84,5.0,NNW,6.9,-,0.00,Rain,Light Rain,340,2012-12-18 03:52:00
11:52 PM,34.0,33.1,96,29.80,4.0,NW,5.8,-,0.01,Rain,Light Rain,320,2012-12-18 04:52:00